Погода в Кировограде

Хотите узнать прогноз погоды в Кировограде? Тогда Вам сюда: Погода в Кировограде

Поиск расширенной информации на нашем сайте:

Полезная информация:

Новости сайта



02.01.2020
Опубликован Долгосрочный прогноз погоды по городам России и ближнего зарубежья на январь 2020 года.
Карты: Прогноз на январь и февраль 2020 года, Сравнение прогнозируемой аномалии приземной температуры воздуха на январь 2020 года по разным моделям.




Погода в Кировограде - сегодня

Время (UTC), дата Ветер
(°,м/с) 
Видим.   Явления Облачность Т
(°С)
Тd
(°С)
f(%) Тe
(°С)
Pmin
(гПа)
dP
(гПа)
Po
(мм)
O2
(г/м3)
Тmin Tmax R s Состояние
почвы
03 19.01.20 тихо ()   0200 м  переохл. туман  ?/?  
-3.2 -3.2 100 -3  1030.4  -0.2  756  309           
06 19.01.20 110 (В) 0200 м  переохл. туман [диам. сложн. отлож. 2 мм]  ?/?  
-4.1 -4.1 100 -5  1031.4  0.9  757  310  -4.1         
09 19.01.20 тихо ()   5000 м  в посл. час туман  10/10 100 м 
[St]
-3.9 -4.1 98 -4  1032.1  0.7  758  310           
12 19.01.20 360 (С) 2000 м  дымка{туман}  10/10 100 м 
[St]
-3.3 -4 95 -5  1032.1  757  308          затоплена
водой 
15 19.01.20 330 (СЗ) 1200 м  дымка  10/10 100 м 
[St]
-2.9 -3.3 97 -4  1032.9  0.9  758  309           
18 19.01.20 030 (СВ) 0600 м  переохл. туман [диам. сложн. отлож. 3 мм]  ?/?  
-3.2 -3.2 100 -5  1034.5  1.5  759  310    -2.9       
21 19.01.20 350 (С) 7000 м  в посл. час туман  10/10 100 м 
[St]
-3 -3.4 97 -5  1035.4  0.9  760  310           
00 20.01.20 350 (С) 4700 м  дымка{туман}  10/10 180 м 
[St]
-2.5 -3.1 96 -5  1036  0.6  760  310           
03 20.01.20 360 (С) 6000 м  дымка  10/10 210 м 
[St]
-2.6 -3.6 93 -5  1036.4  0.4  761  310           
06 20.01.20 330 (СЗ) 3300 м  дымка  10/10 180 м 
[St]
-2.7 -3.4 95 -7  1037.2  0.8  761  310  -3.2         
09 20.01.20 350 (С) 9000 м  дымка  10/10 240 м 
[St]
-2.6 -3.6 93 -7  1038  0.8  762  310           
12 20.01.20 340 (С) 20000 м    10/10 450 м 
[St]
-0.5 -3 83 -3  1037.2  -0.6  761  308           
15 20.01.20 320 (СЗ) 10 км  в посл. час морось{снег}  10/10 570 м 
[Sc]
-0.2 -2.6 84 -3  1037.6  0.4  762  307           
18 20.01.20 340 (С) 10 км  {снег}  10/10 300 м 
[St]
+0.1 -2 86 -4  1037.8  0.2  762  307    +0.1  0.0     
21 20.01.20 310 (СЗ) 10 км    10/10 540 м 
[Sc]
-0.1 -2.8 82 -3  1037.4  -0.4  762  307           
00 21.01.20 320 (СЗ) 10 км    10/10 400 м 
[St]
-0.2 -2.9 82 -4  1035.9  -1.5  761  307           
03 21.01.20 300 (СЗ) 10 км    10/10 360 м 
[St]
-0.4 -2.8 84 -4  1034.3  -1.6  759  307           
06 21.01.20 290 (З) 10 км    10/10 420 м 
[St]
-0.4 -3.1 82 -3  1033.2  -1.1  758  306  -0.6         
09 21.01.20 290 (З) 20000 м    9/9 480 м 
[St]
+1.4 -2.4 76 -1  1031.4  -1.6  757  304           
12 21.01.20 270 (З) 20000 м    8/0 средняя 
[Ac trans]
+4 -2.2 64 +1  1027.6  -3.5  755  300           
15 21.01.20 280 (З) 20000 м    3/0 средняя 
[Ac trans]
+3.3 -4.2 58 1025.5  -2.1  753  300           
18 21.01.20 280 (З) 10 км    4/0 средняя 
[Ac trans]
+2.6 -3.3 65 1023.8  -1.7  752  300    +4.3       
21 21.01.20 290 (З) 10 км    9/9 800 м 
[Sc]
+2.7 -3.2 65 1022.6  -1.2  751  300           
00 22.01.20 300 (СЗ) 10 км    3/0 верхняя 
[Ci fib]
+1.6 -2.5 74 -1  1022.1  -0.6  750  301           
03 22.01.20 280 (З) 10 км    5/5 660 м 
[Sc]
+0.8 -2.4 79 -2  1020.1  -2  749  301           
Время (UTC), дата Ветер
(°,м/с) 
Видим.   Явления Облачность Т
(°С)
Тd
(°С)
f(%) Тe
(°С)
Pmin
(гПа)
dP
(гПа)
Po
(мм)
O2
(г/м3)
Тmin Tmax R s Состояние
почвы

Для получения пояснительной информации подведите курсор к названию столбца.

ПОГОДА в Кировограде - архив

Всё, что Вы хотите узнать о погоде в Кировограде - удобно и подробно!

Выберите нужную дату (начиная с 1 января 2019* года) и нажмите кнопку "Найти".
Будут отображены архивные сводки погоды по пункту Кировоград, начиная с указанной даты.


Отображать данные в формате CSV (для использования в таблицах Excel)


Внимание! Наш архив погоды предназначен исключительно для личного некоммерческого использования в познавательных целях. Если Вам необходимы официальные справки о состоянии погоды (для производственных, юридических, коммерческих и т.п. целей), обращайтесь в органы Росгидромета.

*Примечание: данная дата относится к архиву по метеостанциям СССР (Россия, СНГ, Балтия).
Архив по метеостанциям Зарубежной Европы и Азии (кроме Китая) хранится 10 дней, по другим регионам земного шара (Китай, Африка, Америка, Австралия, Океания) - 1 день.

Кировоград - район местоположения метеостанции


Название, широта, долгота, высота метеостанции:
Кировоград 48.5°ш. 32.2°д. 171 м над ур. моря [Украина]

Дополнительная информация

В oтличие oт бoльшинства пoгoдных сайтoв мы публикуем пoдрoбную метеoинфoрмацию в детальнoм прoфессиoнальнoм фoрмате.

Характеристики температуры и влажнoсти вoздуха измеряются на высoте 2 м в тени вдали oт зданий и деревьев.
Скoрoсть ветра измеряется на высoте 10 м (на урoвне рoста челoвека скoрoсть ветра ниже в 1.5-2 раза). Если метеoстанция нахoдится в гoрoде или в лесу, тo скoрoсть ветра занижена на 2-4 м/с пo сравнению с oткрытым местoм. Скoрoсть ветра над акватoриями крупных рек и oзёр, а также на вершинах хoлмoв на 2-5 м/с выше, чем в oбычных услoвиях.
Атмoсфернoе давление в разных тoчках местнoсти мoжет значительнo oтличаться oт давления на метеoстанции, в зависимoсти oт услoвий рельефа (при пoдъёме на 10 м давление пoнижается примернo на 1 мм рт.ст.).